Year,Month,Day,Hour,Minute,Value (Times are PST for temperature in C)
2014,08,04,00,00,17.00
2014,08,04,00,01,17.00
2014,08,04,00,02,16.90
2014,08,04,00,03,16.90
2014,08,04,00,04,16.90
2014,08,04,00,05,16.90
2014,08,04,00,06,16.80
2014,08,04,00,07,16.80
2014,08,04,00,08,16.80
2014,08,04,00,09,16.70
2014,08,04,00,10,16.70
2014,08,04,00,11,16.70
2014,08,04,00,12,16.70
2014,08,04,00,13,16.70
2014,08,04,00,14,16.60
2014,08,04,00,15,16.60
2014,08,04,00,16,16.60
2014,08,04,00,17,16.50
2014,08,04,00,18,16.40
2014,08,04,00,19,16.40
2014,08,04,00,20,16.40
2014,08,04,00,21,16.30
2014,08,04,00,22,16.30
2014,08,04,00,23,16.20
2014,08,04,00,24,16.20
2014,08,04,00,25,16.20
2014,08,04,00,26,16.10
2014,08,04,00,27,16.10
2014,08,04,00,28,16.10
2014,08,04,00,29,16.00
2014,08,04,00,30,15.90
2014,08,04,00,31,15.90
2014,08,04,00,32,15.80
2014,08,04,00,33,15.80
2014,08,04,00,34,15.80
2014,08,04,00,35,15.80
2014,08,04,00,36,15.80
2014,08,04,00,37,15.70
2014,08,04,00,38,15.70
2014,08,04,00,39,15.70
2014,08,04,00,40,15.60
2014,08,04,00,41,15.60
2014,08,04,00,42,15.50
2014,08,04,00,43,15.50
2014,08,04,00,44,15.50
2014,08,04,00,45,15.50
2014,08,04,00,46,15.50
2014,08,04,00,47,15.40
2014,08,04,00,48,15.40
2014,08,04,00,49,15.30
2014,08,04,00,50,15.30
2014,08,04,00,51,15.30
2014,08,04,00,52,15.30
2014,08,04,00,53,15.20
2014,08,04,00,54,15.10
2014,08,04,00,55,15.10
2014,08,04,00,56,15.00
2014,08,04,00,57,15.00
2014,08,04,00,58,14.90
2014,08,04,00,59,14.80
2014,08,04,01,00,14.80
2014,08,04,01,01,14.70
2014,08,04,01,02,14.70
2014,08,04,01,03,14.60
2014,08,04,01,04,14.60
2014,08,04,01,05,14.60
2014,08,04,01,06,14.60
2014,08,04,01,07,14.50
2014,08,04,01,08,14.50
2014,08,04,01,09,14.50
2014,08,04,01,10,14.50
2014,08,04,01,11,14.50
2014,08,04,01,12,14.50
2014,08,04,01,13,14.50
2014,08,04,01,14,14.50
2014,08,04,01,15,14.50
2014,08,04,01,16,14.50
2014,08,04,01,17,14.50
2014,08,04,01,18,14.50
2014,08,04,01,19,14.40
2014,08,04,01,20,14.40
2014,08,04,01,21,14.40
2014,08,04,01,22,14.40
2014,08,04,01,23,14.40
2014,08,04,01,24,14.40
2014,08,04,01,25,14.40
2014,08,04,01,26,14.40
2014,08,04,01,27,14.40
2014,08,04,01,28,14.40
2014,08,04,01,29,14.40
2014,08,04,01,30,14.40
2014,08,04,01,31,14.40
2014,08,04,01,32,14.40
2014,08,04,01,33,14.40
2014,08,04,01,34,14.40
2014,08,04,01,35,14.50
2014,08,04,01,36,14.50
2014,08,04,01,37,14.50
2014,08,04,01,38,14.50
2014,08,04,01,39,14.50
2014,08,04,01,40,14.50
2014,08,04,01,41,14.50
2014,08,04,01,42,14.50
2014,08,04,01,43,14.50
2014,08,04,01,44,14.50
2014,08,04,01,45,14.50
2014,08,04,01,46,14.50
2014,08,04,01,47,14.60
2014,08,04,01,48,14.60
2014,08,04,01,49,14.60
2014,08,04,01,50,14.60
2014,08,04,01,51,14.60
2014,08,04,01,52,14.70
2014,08,04,01,53,14.70
2014,08,04,01,54,14.80
2014,08,04,01,55,14.80
2014,08,04,01,56,14.80
2014,08,04,01,57,14.80
2014,08,04,01,58,14.90
2014,08,04,01,59,14.90
2014,08,04,02,00,14.90
2014,08,04,02,01,14.90
2014,08,04,02,02,14.90
2014,08,04,02,03,14.80
2014,08,04,02,04,14.80
2014,08,04,02,05,14.80
2014,08,04,02,06,14.80
2014,08,04,02,07,14.80
2014,08,04,02,08,14.80
2014,08,04,02,09,14.80
2014,08,04,02,10,14.80
2014,08,04,02,11,14.80
2014,08,04,02,12,14.80
2014,08,04,02,13,14.70
2014,08,04,02,14,14.70
2014,08,04,02,15,14.70
2014,08,04,02,16,14.70
2014,08,04,02,17,14.60
2014,08,04,02,18,14.60
2014,08,04,02,19,14.60
2014,08,04,02,20,14.60
2014,08,04,02,21,14.60
2014,08,04,02,22,14.50
2014,08,04,02,23,14.50
2014,08,04,02,24,14.50
2014,08,04,02,25,14.50
2014,08,04,02,26,14.50
2014,08,04,02,27,14.40
2014,08,04,02,28,14.40
2014,08,04,02,29,14.40
2014,08,04,02,30,14.40
2014,08,04,02,31,14.40
2014,08,04,02,32,14.30
2014,08,04,02,33,14.30
2014,08,04,02,34,14.30
2014,08,04,02,35,14.30
2014,08,04,02,36,14.20
2014,08,04,02,37,14.20
2014,08,04,02,38,14.20
2014,08,04,02,39,14.20
2014,08,04,02,40,14.20
2014,08,04,02,41,14.20
2014,08,04,02,42,14.20
2014,08,04,02,43,14.20
2014,08,04,02,44,14.20
2014,08,04,02,45,14.20
2014,08,04,02,46,14.20
2014,08,04,02,47,14.10
2014,08,04,02,48,14.10
2014,08,04,02,49,14.10
2014,08,04,02,50,14.10
2014,08,04,02,51,14.10
2014,08,04,02,52,14.10
2014,08,04,02,53,14.10
2014,08,04,02,54,14.10
2014,08,04,02,55,14.10
2014,08,04,02,56,14.00
2014,08,04,02,57,14.00
2014,08,04,02,58,13.90
2014,08,04,02,59,13.90
2014,08,04,03,00,13.80
2014,08,04,03,01,13.80
2014,08,04,03,02,13.80
2014,08,04,03,03,13.80
2014,08,04,03,04,13.80
2014,08,04,03,05,13.80
2014,08,04,03,06,13.70
2014,08,04,03,07,13.70
2014,08,04,03,08,13.70
2014,08,04,03,09,13.70
2014,08,04,03,10,13.70
2014,08,04,03,11,13.60
2014,08,04,03,12,13.60
2014,08,04,03,13,13.60
2014,08,04,03,14,13.50
2014,08,04,03,15,13.50
2014,08,04,03,16,13.50
2014,08,04,03,17,13.40
2014,08,04,03,18,13.40
2014,08,04,03,19,13.30
2014,08,04,03,20,13.30
2014,08,04,03,21,13.30
2014,08,04,03,22,13.30
2014,08,04,03,23,13.30
2014,08,04,03,24,13.30
2014,08,04,03,25,13.30
2014,08,04,03,26,13.30
2014,08,04,03,27,13.20
2014,08,04,03,28,13.20
2014,08,04,03,29,13.20
2014,08,04,03,30,13.20
2014,08,04,03,31,13.20
2014,08,04,03,32,13.10
2014,08,04,03,33,13.10
2014,08,04,03,34,13.10
2014,08,04,03,35,13.10
2014,08,04,03,36,13.10
2014,08,04,03,37,13.00
2014,08,04,03,38,13.00
2014,08,04,03,39,13.00
2014,08,04,03,40,13.00
2014,08,04,03,41,13.00
2014,08,04,03,42,13.00
2014,08,04,03,43,13.00
2014,08,04,03,44,13.00
2014,08,04,03,45,13.00
2014,08,04,03,46,13.00
2014,08,04,03,47,12.90
2014,08,04,03,48,12.90
2014,08,04,03,49,12.90
2014,08,04,03,50,12.90
2014,08,04,03,51,12.90
2014,08,04,03,52,12.90
2014,08,04,03,53,12.90
2014,08,04,03,54,12.90
2014,08,04,03,55,12.80
2014,08,04,03,56,12.80
2014,08,04,03,57,12.80
2014,08,04,03,58,12.80
2014,08,04,03,59,12.80
2014,08,04,04,00,12.80
2014,08,04,04,01,12.80
2014,08,04,04,02,12.80
2014,08,04,04,03,12.80
2014,08,04,04,04,12.80
2014,08,04,04,05,12.80
2014,08,04,04,06,12.80
2014,08,04,04,07,12.80
2014,08,04,04,08,12.80
2014,08,04,04,09,12.80
2014,08,04,04,10,12.80
2014,08,04,04,11,12.80
2014,08,04,04,12,12.80
2014,08,04,04,13,12.80
2014,08,04,04,14,12.80
2014,08,04,04,15,12.80
2014,08,04,04,16,12.80
2014,08,04,04,17,12.80
2014,08,04,04,18,12.80
2014,08,04,04,19,12.80
2014,08,04,04,20,12.80
2014,08,04,04,21,12.80
2014,08,04,04,22,12.80
2014,08,04,04,23,12.80
2014,08,04,04,24,12.80
2014,08,04,04,25,12.80
2014,08,04,04,26,12.80
2014,08,04,04,27,12.80
2014,08,04,04,28,12.80
2014,08,04,04,29,12.70
2014,08,04,04,30,12.70
2014,08,04,04,31,12.70
2014,08,04,04,32,12.70
2014,08,04,04,33,12.60
2014,08,04,04,34,12.60
2014,08,04,04,35,12.60
2014,08,04,04,36,12.60
2014,08,04,04,37,12.60
2014,08,04,04,38,12.60
2014,08,04,04,39,12.60
2014,08,04,04,40,12.60
2014,08,04,04,41,12.50
2014,08,04,04,42,12.50
2014,08,04,04,43,12.50
2014,08,04,04,44,12.50
2014,08,04,04,45,12.50
2014,08,04,04,46,12.50
2014,08,04,04,47,12.50
2014,08,04,04,48,12.50
2014,08,04,04,49,12.50
2014,08,04,04,50,12.50
2014,08,04,04,51,12.50
2014,08,04,04,52,12.50
2014,08,04,04,53,12.50
2014,08,04,04,54,12.50
2014,08,04,04,55,12.50
2014,08,04,04,56,12.60
2014,08,04,04,57,12.60
2014,08,04,04,58,12.60
2014,08,04,04,59,12.50
2014,08,04,05,00,12.50
2014,08,04,05,01,12.50
2014,08,04,05,02,12.50
2014,08,04,05,03,12.50
2014,08,04,05,04,12.50
2014,08,04,05,05,12.50
2014,08,04,05,06,12.60
2014,08,04,05,07,12.60
2014,08,04,05,08,12.70
2014,08,04,05,09,12.80
2014,08,04,05,10,12.80
2014,08,04,05,11,12.80
2014,08,04,05,12,12.80
2014,08,04,05,13,12.80
2014,08,04,05,14,12.80
2014,08,04,05,15,12.80
2014,08,04,05,16,12.80
2014,08,04,05,17,12.80
2014,08,04,05,18,12.80
2014,08,04,05,19,12.80
2014,08,04,05,20,12.80
2014,08,04,05,21,12.80
2014,08,04,05,22,12.80
2014,08,04,05,23,12.80
2014,08,04,05,24,12.80
2014,08,04,05,25,12.80
2014,08,04,05,26,12.80
2014,08,04,05,27,12.80
2014,08,04,05,28,12.80
2014,08,04,05,29,12.80
2014,08,04,05,30,12.80
2014,08,04,05,31,12.80
2014,08,04,05,32,12.80
2014,08,04,05,33,12.80
2014,08,04,05,34,12.80
2014,08,04,05,35,12.80
2014,08,04,05,36,12.80
2014,08,04,05,37,12.80
2014,08,04,05,38,12.80
2014,08,04,05,39,12.70
2014,08,04,05,40,12.70
2014,08,04,05,41,12.70
2014,08,04,05,42,12.60
2014,08,04,05,43,12.60
2014,08,04,05,44,12.60
2014,08,04,05,45,12.60
2014,08,04,05,46,12.50
2014,08,04,05,47,12.50
2014,08,04,05,48,12.50
2014,08,04,05,49,12.50
2014,08,04,05,50,12.50
2014,08,04,05,51,12.50
2014,08,04,05,52,12.50
2014,08,04,05,53,12.60
2014,08,04,05,54,12.60
2014,08,04,05,55,12.60
2014,08,04,05,56,12.70
2014,08,04,05,57,12.70
2014,08,04,05,58,12.80
2014,08,04,05,59,12.80
2014,08,04,06,00,12.80
2014,08,04,06,01,12.80
2014,08,04,06,02,12.80
2014,08,04,06,03,12.80
2014,08,04,06,04,12.70
2014,08,04,06,05,12.70
2014,08,04,06,06,12.60
2014,08,04,06,07,12.60
2014,08,04,06,08,12.60
2014,08,04,06,09,12.60
2014,08,04,06,10,12.60
2014,08,04,06,11,12.60
2014,08,04,06,12,12.60
2014,08,04,06,13,12.60
2014,08,04,06,14,12.60
2014,08,04,06,15,12.50
2014,08,04,06,16,12.50
2014,08,04,06,17,12.50
2014,08,04,06,18,12.50
2014,08,04,06,19,12.50
2014,08,04,06,20,12.50
2014,08,04,06,21,12.50
2014,08,04,06,22,12.50
2014,08,04,06,23,12.50
2014,08,04,06,24,12.50
2014,08,04,06,25,12.50
2014,08,04,06,26,12.60
2014,08,04,06,27,12.60
2014,08,04,06,28,12.60
2014,08,04,06,29,12.60
2014,08,04,06,30,12.60
2014,08,04,06,31,12.70
2014,08,04,06,32,12.70
2014,08,04,06,33,12.60
2014,08,04,06,34,12.60
2014,08,04,06,35,12.60
2014,08,04,06,36,12.60
2014,08,04,06,37,12.60
2014,08,04,06,38,12.70
2014,08,04,06,39,12.70
2014,08,04,06,40,12.70
2014,08,04,06,41,12.70
2014,08,04,06,42,12.80
2014,08,04,06,43,12.80
2014,08,04,06,44,12.80
2014,08,04,06,45,12.80
2014,08,04,06,46,12.80
2014,08,04,06,47,12.80
2014,08,04,06,48,12.80
2014,08,04,06,49,12.80
2014,08,04,06,50,12.80
2014,08,04,06,51,12.80
2014,08,04,06,52,12.80
2014,08,04,06,53,12.80
2014,08,04,06,54,12.80
2014,08,04,06,55,12.80
2014,08,04,06,56,12.80
2014,08,04,06,57,12.80
2014,08,04,06,58,12.90
2014,08,04,06,59,12.90
2014,08,04,07,00,12.90
2014,08,04,07,01,13.00
2014,08,04,07,02,13.10
2014,08,04,07,03,13.10
2014,08,04,07,04,13.20
2014,08,04,07,05,13.20
2014,08,04,07,06,13.30
2014,08,04,07,07,13.30
2014,08,04,07,08,13.40
2014,08,04,07,09,13.50
2014,08,04,07,10,13.60
2014,08,04,07,11,13.60
2014,08,04,07,12,13.70
2014,08,04,07,13,13.70
2014,08,04,07,14,13.80
2014,08,04,07,15,13.90
2014,08,04,07,16,13.90
2014,08,04,07,17,14.00
2014,08,04,07,18,14.00
2014,08,04,07,19,14.00
2014,08,04,07,20,14.10
2014,08,04,07,21,14.10
2014,08,04,07,22,14.10
2014,08,04,07,23,14.10
2014,08,04,07,24,14.10
2014,08,04,07,25,14.10
2014,08,04,07,26,14.10
2014,08,04,07,27,14.10
2014,08,04,07,28,14.00
2014,08,04,07,29,14.00
2014,08,04,07,30,14.00
2014,08,04,07,31,14.00
2014,08,04,07,32,14.00
2014,08,04,07,33,14.10
2014,08,04,07,34,14.10
2014,08,04,07,35,14.10
2014,08,04,07,36,14.10
2014,08,04,07,37,14.20
2014,08,04,07,38,14.20
2014,08,04,07,39,14.20
2014,08,04,07,40,14.20
2014,08,04,07,41,14.30
2014,08,04,07,42,14.30
2014,08,04,07,43,14.30
2014,08,04,07,44,14.40
2014,08,04,07,45,14.40
2014,08,04,07,46,14.50
2014,08,04,07,47,14.50
2014,08,04,07,48,14.60
2014,08,04,07,49,14.60
2014,08,04,07,50,14.60
2014,08,04,07,51,14.70
2014,08,04,07,52,14.80
2014,08,04,07,53,14.80
2014,08,04,07,54,14.80
2014,08,04,07,55,14.90
2014,08,04,07,56,15.00
2014,08,04,07,57,15.10
2014,08,04,07,58,15.10
2014,08,04,07,59,15.20
2014,08,04,08,00,15.30
2014,08,04,08,01,15.40
2014,08,04,08,02,15.50
2014,08,04,08,03,15.60
2014,08,04,08,04,15.70
2014,08,04,08,05,15.80
2014,08,04,08,06,15.80
2014,08,04,08,07,15.90
2014,08,04,08,08,15.90
2014,08,04,08,09,16.00
2014,08,04,08,10,16.10
2014,08,04,08,11,16.10
2014,08,04,08,12,16.20
2014,08,04,08,13,16.20
2014,08,04,08,14,16.20
2014,08,04,08,15,16.30
2014,08,04,08,16,16.30
2014,08,04,08,17,16.30
2014,08,04,08,18,16.30
2014,08,04,08,19,16.30
2014,08,04,08,20,16.40
2014,08,04,08,21,16.40
2014,08,04,08,22,16.60
2014,08,04,08,23,16.70
2014,08,04,08,24,16.80
2014,08,04,08,25,16.90
2014,08,04,08,26,17.00
2014,08,04,08,27,17.20
2014,08,04,08,28,17.30
2014,08,04,08,29,17.40
2014,08,04,08,30,17.50
2014,08,04,08,31,17.60
2014,08,04,08,32,17.70
2014,08,04,08,33,17.80
2014,08,04,08,34,17.90
2014,08,04,08,35,18.00
2014,08,04,08,36,18.20
2014,08,04,08,37,18.30
2014,08,04,08,38,18.40
2014,08,04,08,39,18.50
2014,08,04,08,40,18.60
2014,08,04,08,41,18.60
2014,08,04,08,42,18.70
2014,08,04,08,43,18.70
2014,08,04,08,44,18.70
2014,08,04,08,45,18.70
2014,08,04,08,46,18.80
2014,08,04,08,47,18.80
2014,08,04,08,48,18.80
2014,08,04,08,49,18.80
2014,08,04,08,50,18.90
2014,08,04,08,51,18.90
2014,08,04,08,52,18.90
2014,08,04,08,53,18.90
2014,08,04,08,54,18.90
2014,08,04,08,55,18.80
2014,08,04,08,56,18.70
2014,08,04,08,57,18.60
2014,08,04,08,58,18.40
2014,08,04,08,59,18.20
2014,08,04,09,00,18.20
2014,08,04,09,01,18.20
2014,08,04,09,02,18.20
2014,08,04,09,03,18.20
2014,08,04,09,04,18.20
2014,08,04,09,05,18.20
2014,08,04,09,06,18.30
2014,08,04,09,07,18.30
2014,08,04,09,08,18.50
2014,08,04,09,09,18.60
2014,08,04,09,10,18.70
2014,08,04,09,11,18.90
2014,08,04,09,12,19.00
2014,08,04,09,13,19.20
2014,08,04,09,14,19.30
2014,08,04,09,15,19.50
2014,08,04,09,16,19.60
2014,08,04,09,17,19.80
2014,08,04,09,18,20.00
2014,08,04,09,19,20.10
2014,08,04,09,20,20.20
2014,08,04,09,21,20.40
2014,08,04,09,22,20.40
2014,08,04,09,23,20.50
2014,08,04,09,24,20.40
2014,08,04,09,25,20.40
2014,08,04,09,26,20.30
2014,08,04,09,27,20.10
2014,08,04,09,28,19.80
2014,08,04,09,29,19.40
2014,08,04,09,30,18.90
2014,08,04,09,31,18.50
2014,08,04,09,32,18.20
2014,08,04,09,33,17.90
2014,08,04,09,34,17.70
2014,08,04,09,35,17.60
2014,08,04,09,36,17.50
2014,08,04,09,37,17.50
2014,08,04,09,38,17.50
2014,08,04,09,39,17.50
2014,08,04,09,40,17.50
2014,08,04,09,41,17.50
2014,08,04,09,42,17.50
2014,08,04,09,43,17.50
2014,08,04,09,44,17.40
2014,08,04,09,45,17.30
2014,08,04,09,46,17.20
2014,08,04,09,47,17.10
2014,08,04,09,48,17.10
2014,08,04,09,49,17.00
2014,08,04,09,50,17.00
2014,08,04,09,51,16.90
2014,08,04,09,52,16.80
2014,08,04,09,53,16.80
2014,08,04,09,54,16.70
2014,08,04,09,55,16.60
2014,08,04,09,56,16.60
2014,08,04,09,57,16.60
2014,08,04,09,58,16.60
2014,08,04,09,59,16.70
2014,08,04,10,00,16.80
2014,08,04,10,01,16.80
2014,08,04,10,02,16.80
2014,08,04,10,03,16.80
2014,08,04,10,04,16.90
2014,08,04,10,05,16.90
2014,08,04,10,06,16.90
2014,08,04,10,07,16.90
2014,08,04,10,08,17.00
2014,08,04,10,09,16.90
2014,08,04,10,10,16.90
2014,08,04,10,11,16.90
2014,08,04,10,12,17.00
2014,08,04,10,13,16.90
2014,08,04,10,14,16.90
2014,08,04,10,15,16.90
2014,08,04,10,16,16.80
2014,08,04,10,17,16.70
2014,08,04,10,18,16.70
2014,08,04,10,19,16.70
2014,08,04,10,20,16.70
2014,08,04,10,21,16.80
2014,08,04,10,22,16.90
2014,08,04,10,23,17.00
2014,08,04,10,24,17.10
2014,08,04,10,25,17.20
2014,08,04,10,26,17.30
2014,08,04,10,27,17.40
2014,08,04,10,28,17.40
2014,08,04,10,29,17.30
2014,08,04,10,30,17.40
2014,08,04,10,31,17.50
2014,08,04,10,32,17.60
2014,08,04,10,33,17.60
2014,08,04,10,34,17.70
2014,08,04,10,35,17.80
2014,08,04,10,36,17.80
2014,08,04,10,37,17.80
2014,08,04,10,38,17.70
2014,08,04,10,39,17.70
2014,08,04,10,40,17.70
2014,08,04,10,41,17.80
2014,08,04,10,42,17.90
2014,08,04,10,43,18.00
2014,08,04,10,44,18.20
2014,08,04,10,45,18.40
2014,08,04,10,46,18.50
2014,08,04,10,47,18.60
2014,08,04,10,48,18.70
2014,08,04,10,49,18.80
2014,08,04,10,50,18.80
2014,08,04,10,51,18.90
2014,08,04,10,52,18.90
2014,08,04,10,53,19.00
2014,08,04,10,54,19.10
2014,08,04,10,55,19.20
2014,08,04,10,56,19.30
2014,08,04,10,57,19.30
2014,08,04,10,58,19.20
2014,08,04,10,59,19.10
2014,08,04,11,00,19.10
2014,08,04,11,01,19.10
2014,08,04,11,02,19.10
2014,08,04,11,03,19.10
2014,08,04,11,04,19.20
2014,08,04,11,05,19.20
2014,08,04,11,06,19.20
2014,08,04,11,07,19.20
2014,08,04,11,08,19.30
2014,08,04,11,09,19.30
2014,08,04,11,10,19.30
2014,08,04,11,11,19.40
2014,08,04,11,12,19.50
2014,08,04,11,13,19.60
2014,08,04,11,14,19.50
2014,08,04,11,15,19.50
2014,08,04,11,16,19.40
2014,08,04,11,17,19.30
2014,08,04,11,18,19.30
2014,08,04,11,19,19.40
2014,08,04,11,20,19.50
2014,08,04,11,21,19.50
2014,08,04,11,22,19.50
2014,08,04,11,23,19.50
2014,08,04,11,24,19.50
2014,08,04,11,25,19.50
2014,08,04,11,26,19.50
2014,08,04,11,27,19.50
2014,08,04,11,28,19.50
2014,08,04,11,29,19.60
2014,08,04,11,30,19.60
2014,08,04,11,31,19.70
2014,08,04,11,32,19.80
2014,08,04,11,33,19.80
2014,08,04,11,34,19.90
2014,08,04,11,35,19.90
2014,08,04,11,36,20.10
2014,08,04,11,37,20.10
2014,08,04,11,38,20.20
2014,08,04,11,39,20.20
2014,08,04,11,40,20.20
2014,08,04,11,41,20.20
2014,08,04,11,42,20.20
2014,08,04,11,43,20.20
2014,08,04,11,44,20.10
2014,08,04,11,45,20.10
2014,08,04,11,46,20.10
2014,08,04,11,47,20.10
2014,08,04,11,48,20.10
2014,08,04,11,49,20.10
2014,08,04,11,50,19.90
2014,08,04,11,51,20.00
2014,08,04,11,52,20.10
2014,08,04,11,53,20.10
2014,08,04,11,54,20.10
2014,08,04,11,55,20.20
2014,08,04,11,56,20.20
2014,08,04,11,57,20.20
2014,08,04,11,58,20.20
2014,08,04,11,59,20.20
2014,08,04,12,00,20.30
2014,08,04,12,01,20.40
2014,08,04,12,02,20.60
2014,08,04,12,03,20.70
2014,08,04,12,04,20.70
2014,08,04,12,05,20.70
2014,08,04,12,06,20.90
2014,08,04,12,07,20.90
2014,08,04,12,08,21.00
2014,08,04,12,09,21.10
2014,08,04,12,10,21.10
2014,08,04,12,11,21.10
2014,08,04,12,12,21.00
2014,08,04,12,13,21.00
2014,08,04,12,14,21.00
2014,08,04,12,15,20.90
2014,08,04,12,16,21.00
2014,08,04,12,17,21.20
2014,08,04,12,18,21.40
2014,08,04,12,19,21.60
2014,08,04,12,20,21.60
2014,08,04,12,21,21.70
2014,08,04,12,22,21.70
2014,08,04,12,23,21.60
2014,08,04,12,24,21.50
2014,08,04,12,25,21.40
2014,08,04,12,26,21.40
2014,08,04,12,27,21.40
2014,08,04,12,28,21.40
2014,08,04,12,29,21.40
2014,08,04,12,30,21.30
2014,08,04,12,31,21.50
2014,08,04,12,32,21.60
2014,08,04,12,33,21.70
2014,08,04,12,34,21.70
2014,08,04,12,35,21.70
2014,08,04,12,36,21.70
2014,08,04,12,37,21.60
2014,08,04,12,38,21.70
2014,08,04,12,39,21.70
2014,08,04,12,40,21.70
2014,08,04,12,41,21.60
2014,08,04,12,42,21.60
2014,08,04,12,43,21.80
2014,08,04,12,44,21.70
2014,08,04,12,45,21.70
2014,08,04,12,46,21.80
2014,08,04,12,47,21.80
2014,08,04,12,48,21.80
2014,08,04,12,49,21.90
2014,08,04,12,50,21.90
2014,08,04,12,51,22.00
2014,08,04,12,52,22.10
2014,08,04,12,53,22.00
2014,08,04,12,54,22.00
2014,08,04,12,55,22.00
2014,08,04,12,56,22.00
2014,08,04,12,57,22.00
2014,08,04,12,58,22.00
2014,08,04,12,59,21.90
2014,08,04,13,00,21.90
2014,08,04,13,01,21.90
2014,08,04,13,02,21.80
2014,08,04,13,03,21.80
2014,08,04,13,04,21.80
2014,08,04,13,05,21.90
2014,08,04,13,06,21.90
2014,08,04,13,07,21.90
2014,08,04,13,08,21.80
2014,08,04,13,09,21.80
2014,08,04,13,10,21.80
2014,08,04,13,11,21.80
2014,08,04,13,12,21.70
2014,08,04,13,13,21.60
2014,08,04,13,14,21.60
2014,08,04,13,15,21.50
2014,08,04,13,16,21.40
2014,08,04,13,17,21.40
2014,08,04,13,18,21.30
2014,08,04,13,19,21.30
2014,08,04,13,20,21.30
2014,08,04,13,21,21.30
2014,08,04,13,22,21.30
2014,08,04,13,23,21.30
2014,08,04,13,24,21.50
2014,08,04,13,25,21.60
2014,08,04,13,26,21.80
2014,08,04,13,27,21.80
2014,08,04,13,28,21.80
2014,08,04,13,29,21.80
2014,08,04,13,30,21.70
2014,08,04,13,31,21.60
2014,08,04,13,32,21.60
2014,08,04,13,33,21.60
2014,08,04,13,34,21.60
2014,08,04,13,35,21.60
2014,08,04,13,36,21.60
2014,08,04,13,37,21.50
2014,08,04,13,38,21.60
2014,08,04,13,39,21.50
2014,08,04,13,40,21.40
2014,08,04,13,41,21.30
2014,08,04,13,42,21.30
2014,08,04,13,43,21.40
2014,08,04,13,44,21.40
2014,08,04,13,45,21.40
2014,08,04,13,46,21.40
2014,08,04,13,47,21.40
2014,08,04,13,48,21.40
2014,08,04,13,49,21.40
2014,08,04,13,50,21.30
2014,08,04,13,51,21.40
2014,08,04,13,52,21.50
2014,08,04,13,53,21.60
2014,08,04,13,54,21.60
2014,08,04,13,55,21.40
2014,08,04,13,56,21.30
2014,08,04,13,57,21.30
2014,08,04,13,58,21.40
2014,08,04,13,59,21.60
2014,08,04,14,00,21.70
2014,08,04,14,01,21.60
2014,08,04,14,02,21.50
2014,08,04,14,03,21.40
2014,08,04,14,04,21.50
2014,08,04,14,05,21.60
2014,08,04,14,06,21.80
2014,08,04,14,07,21.80
2014,08,04,14,08,21.90
2014,08,04,14,09,21.80
2014,08,04,14,10,21.70
2014,08,04,14,11,21.60
2014,08,04,14,12,21.60
2014,08,04,14,13,21.60
2014,08,04,14,14,21.60
2014,08,04,14,15,21.60
2014,08,04,14,16,21.60
2014,08,04,14,17,21.60
2014,08,04,14,18,21.60
2014,08,04,14,19,21.50
2014,08,04,14,20,21.60
2014,08,04,14,21,21.60
2014,08,04,14,22,21.60
2014,08,04,14,23,21.60
2014,08,04,14,24,21.60
2014,08,04,14,25,21.60
2014,08,04,14,26,21.50
2014,08,04,14,27,21.30
2014,08,04,14,28,21.30
2014,08,04,14,29,21.30
2014,08,04,14,30,21.30
2014,08,04,14,31,21.40
2014,08,04,14,32,21.40
2014,08,04,14,33,21.30
2014,08,04,14,34,21.30
2014,08,04,14,35,21.30
2014,08,04,14,36,21.30
2014,08,04,14,37,21.40
2014,08,04,14,38,21.50
2014,08,04,14,39,21.60
2014,08,04,14,40,21.40
2014,08,04,14,41,21.30
2014,08,04,14,42,21.10
2014,08,04,14,43,20.90
2014,08,04,14,44,20.70
2014,08,04,14,45,20.50
2014,08,04,14,46,20.30
2014,08,04,14,47,20.20
2014,08,04,14,48,20.20
2014,08,04,14,49,20.10
2014,08,04,14,50,20.00
2014,08,04,14,51,19.90
2014,08,04,14,52,19.80
2014,08,04,14,53,19.70
2014,08,04,14,54,19.70
2014,08,04,14,55,19.70
2014,08,04,14,56,19.80
2014,08,04,14,57,19.90
2014,08,04,14,58,20.00
2014,08,04,14,59,20.10
2014,08,04,15,00,20.00
2014,08,04,15,01,19.90
2014,08,04,15,02,19.90
2014,08,04,15,03,19.90
2014,08,04,15,04,19.90
2014,08,04,15,05,19.90
2014,08,04,15,06,19.60
2014,08,04,15,07,19.30
2014,08,04,15,08,19.00
2014,08,04,15,09,18.80
2014,08,04,15,10,18.50
2014,08,04,15,11,18.20
2014,08,04,15,12,18.20
2014,08,04,15,13,18.20
2014,08,04,15,14,18.20
2014,08,04,15,15,18.10
2014,08,04,15,16,17.90
2014,08,04,15,17,17.80
2014,08,04,15,18,17.80
2014,08,04,15,19,17.70
2014,08,04,15,20,17.70
2014,08,04,15,21,17.80
2014,08,04,15,22,17.90
2014,08,04,15,23,18.00
2014,08,04,15,24,18.20
2014,08,04,15,25,18.30
2014,08,04,15,26,18.50
2014,08,04,15,27,18.60
2014,08,04,15,28,18.70
2014,08,04,15,29,18.70
2014,08,04,15,30,18.70
2014,08,04,15,31,18.80
2014,08,04,15,32,18.80
2014,08,04,15,33,18.90
2014,08,04,15,34,18.90
2014,08,04,15,35,18.90
2014,08,04,15,36,19.00
2014,08,04,15,37,19.20
2014,08,04,15,38,19.40
2014,08,04,15,39,19.50
2014,08,04,15,40,19.60
2014,08,04,15,41,19.80
2014,08,04,15,42,19.80
2014,08,04,15,43,19.70
2014,08,04,15,44,19.70
2014,08,04,15,45,19.70
2014,08,04,15,46,19.80
2014,08,04,15,47,19.80
2014,08,04,15,48,19.80
2014,08,04,15,49,19.90
2014,08,04,15,50,19.90
2014,08,04,15,51,19.80
2014,08,04,15,52,19.60
2014,08,04,15,53,19.50
2014,08,04,15,54,19.50
2014,08,04,15,55,19.40
2014,08,04,15,56,19.30
2014,08,04,15,57,19.30
2014,08,04,15,58,19.30
2014,08,04,15,59,19.30
2014,08,04,16,00,19.40
2014,08,04,16,01,19.40
2014,08,04,16,02,19.40
2014,08,04,16,03,19.30
2014,08,04,16,04,19.20
2014,08,04,16,05,19.10
2014,08,04,16,06,18.90
2014,08,04,16,07,18.70
2014,08,04,16,08,18.60
2014,08,04,16,09,18.60
2014,08,04,16,10,18.60
2014,08,04,16,11,18.70
2014,08,04,16,12,18.80
2014,08,04,16,13,18.70
2014,08,04,16,14,18.60
2014,08,04,16,15,18.50
2014,08,04,16,16,18.20
2014,08,04,16,17,18.00
2014,08,04,16,18,17.80
2014,08,04,16,19,17.60
2014,08,04,16,20,17.40
2014,08,04,16,21,17.30
2014,08,04,16,22,17.30
2014,08,04,16,23,17.30
2014,08,04,16,24,17.30
2014,08,04,16,25,17.40
2014,08,04,16,26,17.50
2014,08,04,16,27,17.60
2014,08,04,16,28,17.70
2014,08,04,16,29,17.70
2014,08,04,16,30,17.80
2014,08,04,16,31,17.90
2014,08,04,16,32,17.90
2014,08,04,16,33,17.80
2014,08,04,16,34,17.80
2014,08,04,16,35,17.70
2014,08,04,16,36,17.50
2014,08,04,16,37,17.30
2014,08,04,16,38,17.30
2014,08,04,16,39,17.30
2014,08,04,16,40,17.30
2014,08,04,16,41,17.40
2014,08,04,16,42,17.50
2014,08,04,16,43,17.50
2014,08,04,16,44,17.40
2014,08,04,16,45,17.30
2014,08,04,16,46,17.30
2014,08,04,16,47,17.30
2014,08,04,16,48,17.30
2014,08,04,16,49,17.40
2014,08,04,16,50,17.60
2014,08,04,16,51,17.70
2014,08,04,16,52,17.60
2014,08,04,16,53,17.60
2014,08,04,16,54,17.60
2014,08,04,16,55,17.70
2014,08,04,16,56,17.70
2014,08,04,16,57,17.70
2014,08,04,16,58,17.70
2014,08,04,16,59,17.70
2014,08,04,17,00,17.70
2014,08,04,17,01,17.70
2014,08,04,17,02,17.60
2014,08,04,17,03,17.60
2014,08,04,17,04,17.50
2014,08,04,17,05,17.40
2014,08,04,17,06,17.40
2014,08,04,17,07,17.40
2014,08,04,17,08,17.40
2014,08,04,17,09,17.50
2014,08,04,17,10,17.50
2014,08,04,17,11,17.70
2014,08,04,17,12,17.70
2014,08,04,17,13,17.80
2014,08,04,17,14,17.90
2014,08,04,17,15,17.80
2014,08,04,17,16,17.80
2014,08,04,17,17,17.80
2014,08,04,17,18,17.80
2014,08,04,17,19,17.70